This is the latest recevied weather packets stored in our database for station/object IN3XSV. If no packets are shown the sender has not sent any weather packets the latest 10 day(s).
| Time | Temp. | Humidity | Pressure | Rain* | Wind** | Luminosity | Snow |
|---|---|---|---|---|---|---|---|
| 1778060619 | 13.89° C | 76% | 1003.7 hPa | 0 mm | - | - | - |
| 1778060319 | 14.44° C | 77% | 1003.9 hPa | 0 mm | - | - | - |
| 1778060019 | 14.44° C | 77% | 1003.8 hPa | 0 mm | - | - | - |
| 1778059719 | 14.44° C | 77% | 1003.7 hPa | 0 mm | - | - | - |
| 1778059419 | 14.44° C | 78% | 1003.7 hPa | 0 mm | - | - | - |
| 1778059119 | 14.44° C | 78% | 1003.7 hPa | 0 mm | - | - | - |
| 1778058819 | 14.44° C | 79% | 1003.8 hPa | 0 mm | - | - | - |
| 1778058519 | 13.89° C | 79% | 1003.8 hPa | 0 mm | - | - | - |
| 1778058219 | 13.89° C | 79% | 1003.9 hPa | 0 mm | - | - | - |
| 1778057919 | 13.33° C | 79% | 1003.8 hPa | 0 mm | - | - | - |
| 1778057619 | 12.78° C | 79% | 1003.8 hPa | 0 mm | - | - | - |
| 1778057319 | 12.22° C | 79% | 1003.8 hPa | 0 mm | - | - | - |
| 1778057019 | 12.22° C | 79% | 1003.8 hPa | 0 mm | - | - | - |
| 1778056719 | 12.22° C | 79% | 1004 hPa | 0 mm | - | - | - |
| 1778056419 | 11.67° C | 78% | 1003.9 hPa | 0 mm | - | - | - |
| 1778056119 | 11.67° C | 78% | 1004 hPa | 0 mm | - | - | - |
| 1778055819 | 11.11° C | 78% | 1004 hPa | 0 mm | - | - | - |
| 1778055519 | 10.56° C | 77% | 1004 hPa | 0.51 mm | - | - | - |
| 1778055219 | 10.56° C | 77% | 1004.1 hPa | 0.51 mm | - | - | - |
| 1778054919 | 10.56° C | 77% | 1004.3 hPa | 0.51 mm | - | - | - |
| 1778054619 | 10° C | 76% | 1004.4 hPa | 0.51 mm | - | - | - |
| 1778054319 | 10° C | 76% | 1004.2 hPa | 1.02 mm | - | - | - |
| 1778054019 | 10° C | 76% | 1004.3 hPa | 1.02 mm | - | - | - |
| 1778053719 | 10° C | 76% | 1004.4 hPa | 1.02 mm | - | - | - |
| 1778053419 | 9.44° C | 76% | 1004.5 hPa | 1.02 mm | - | - | - |
* Rain latest hour (hover to see other rain measurements)
** Current wind speed in m/s (hover to see current wind gust speed)